Tracking 30466 objects as of 17-May-2025
HD Live streaming from Space Station
objects crossing your sky now

THORAD AGENA D DEB

Track THORAD AGENA D DEB now!
10-day predictions


NORAD ID: 42508
Int'l Code: 1970-025RN
Perigee: 839.1 km
Apogee: 1,016.1 km
Inclination: 99.9 °
Period: 103.4 minutes
Semi major axis: 7298 km
RCS: Unknown
Launch date: April 8, 1970
Source: United States (US)
Launch site: AIR FORCE WESTERN TEST RANGE (AFWTR)

Note: This is SATELLITE DEBRIS
Your satellite tracking list
Your tracking list is empty




NASA's NSSDC Master Catalog

Two Line Element Set (TLE):
1 42508U 70025RN  25126.28095489  .00000713  00000-0  55989-3 0  9994
2 42508  99.8581 328.7882 0121306 340.0442  19.5993 13.92332778119607
Source of the keplerian elements: AFSPC